Вернуться в каталог

STARLINK-3751

АктивенСвязьVLEO
NORAD 52289·PAYLOAD·🇺🇸 United States

Запущен Apr 21, 2022 с Cape Canaveral Space Force Station

Loading…

Ближайшие Пролёты (ближайшие 24 часа)

TLE

СвежийSource: CelesTrak SupGP

Эпоха: Sep 15, 2026, 01:20 UTC

1 52289C 22041AE  26258.05604167  .00037628  00000+0  12101-2 0  2587
2 52289  53.1594 317.1445 0001161  89.6597  88.7597 15.31680179    19

Отслеживайте STARLINK-3751 в реальном времени с AllMySat

Download on the App Store